Back to catalog

STARLINK-34889

AliveCommunicationsVLEO
NORAD 65761·PAYLOAD·🇺🇸 United States

Launched Sep 25, 2025 from Cape Canaveral Space Force Station

Loading…

Next Passes (next 24 hours)

TLE

FreshSource: CelesTrak SupGP

Epoch: Sep 14, 2026, 22:51 UTC

1 65761C 25216AD  26257.95256944 -.00096009  00000+0 -28360-2 0  2570
2 65761  53.1575 171.5541 0001255  92.3284 208.6164 15.34445289    11

Track STARLINK-34889 in real time with AllMySat

Download on the App Store